Time,TemperatureF,DewpointF,PressureIn,WindDirection,WindDirectionDegrees,WindSpeedMPH,WindSpeedGustMPH,Humidity,HourlyPrecipIn,Conditions,Clouds,dailyrainin,SoftwareType,DateUTC
2013-08-16 00:01:00,53.3,51.9,30.12,NNE,29,0.0,1.0,95,0.00,,,0.00,WUHU216DAVISVP2,2013-08-16 04:01:00,
2013-08-16 00:02:00,53.3,51.9,30.12,NNE,29,0.0,1.0,95,0.00,,,0.00,WUHU216DAVISVP2,2013-08-16 04:02:00,
2013-08-16 00:07:00,53.1,51.7,30.12,NNE,29,0.0,1.0,95,0.00,,,0.00,WUHU216DAVISVP2,2013-08-16 04:07:00,
2013-08-16 00:12:00,53.0,51.6,30.12,NNE,29,0.0,0.0,95,0.00,,,0.00,WUHU216DAVISVP2,2013-08-16 04:12:00,
2013-08-16 00:17:00,52.8,51.4,30.12,NNE,29,0.0,1.0,95,0.00,,,0.00,WUHU216DAVISVP2,2013-08-16 04:17:00,
2013-08-16 00:22:00,52.9,51.8,30.12,NNE,29,0.0,1.0,96,0.00,,,0.00,WUHU216DAVISVP2,2013-08-16 04:22:00,
2013-08-16 00:27:00,52.8,51.7,30.12,NNE,29,0.0,1.0,96,0.00,,,0.00,WUHU216DAVISVP2,2013-08-16 04:27:00,
2013-08-16 00:32:00,52.8,51.7,30.12,NNE,29,0.0,1.0,96,0.00,,,0.00,WUHU216DAVISVP2,2013-08-16 04:32:00,
2013-08-16 00:37:00,52.8,51.4,30.12,NNE,29,0.0,1.0,95,0.00,,,0.00,WUHU216DAVISVP2,2013-08-16 04:37:00,
2013-08-16 00:42:00,52.7,51.6,30.12,NNE,29,0.0,1.0,96,0.00,,,0.00,WUHU216DAVISVP2,2013-08-16 04:42:00,
2013-08-16 00:46:00,52.6,51.5,30.12,NNE,29,0.0,1.0,96,0.00,,,0.00,WUHU216DAVISVP2,2013-08-16 04:46:00,
2013-08-16 00:51:00,52.7,51.3,30.12,ESE,103,0.0,2.0,95,0.00,,,0.00,WUHU216DAVISVP2,2013-08-16 04:51:00,
2013-08-16 00:56:00,52.8,51.4,30.12,NNE,30,0.0,2.0,95,0.00,,,0.00,WUHU216DAVISVP2,2013-08-16 04:56:00,
2013-08-16 01:01:00,52.9,51.5,30.12,NNE,30,0.0,2.0,95,0.00,,,0.00,WUHU216DAVISVP2,2013-08-16 05:01:00,
2013-08-16 01:06:00,53.0,51.3,30.12,NNE,30,0.0,2.0,94,0.00,,,0.00,WUHU216DAVISVP2,2013-08-16 05:06:00,
2013-08-16 01:11:00,52.8,51.1,30.12,NNE,31,0.0,1.0,94,0.00,,,0.00,WUHU216DAVISVP2,2013-08-16 05:11:00,
2013-08-16 01:19:00,52.8,51.1,30.12,NNE,31,0.0,1.0,94,0.00,,,0.00,WUHU216DAVISVP2,2013-08-16 05:19:00,
2013-08-16 01:24:00,52.6,50.9,30.12,NNW,336,0.0,1.0,94,0.00,,,0.00,WUHU216DAVISVP2,2013-08-16 05:24:00,
2013-08-16 01:29:00,52.8,51.1,30.12,NE,44,0.0,2.0,94,0.00,,,0.00,WUHU216DAVISVP2,2013-08-16 05:29:00,
2013-08-16 01:34:00,53.0,51.0,30.12,NE,44,0.0,2.0,93,0.00,,,0.00,WUHU216DAVISVP2,2013-08-16 05:34:00,
2013-08-16 01:39:00,53.0,51.3,30.12,NE,44,1.0,2.0,94,0.00,,,0.00,WUHU216DAVISVP2,2013-08-16 05:39:00,
2013-08-16 01:44:00,53.2,51.2,30.12,NE,42,1.0,2.0,93,0.00,,,0.00,WUHU216DAVISVP2,2013-08-16 05:44:00,
2013-08-16 01:49:00,53.1,51.1,30.12,NE,42,0.0,2.0,93,0.00,,,0.00,WUHU216DAVISVP2,2013-08-16 05:49:00,
2013-08-16 01:54:00,52.9,50.9,30.12,NE,35,1.0,3.0,93,0.00,,,0.00,WUHU216DAVISVP2,2013-08-16 05:54:00,
2013-08-16 01:59:00,53.2,51.2,30.12,ENE,57,1.0,3.0,93,0.00,,,0.00,WUHU216DAVISVP2,2013-08-16 05:59:00,
2013-08-16 02:04:00,53.4,51.1,30.12,ENE,70,0.0,3.0,92,0.00,,,0.00,WUHU216DAVISVP2,2013-08-16 06:04:00,
2013-08-16 02:09:00,53.6,51.0,30.12,NNE,18,0.0,3.0,91,0.00,,,0.00,WUHU216DAVISVP2,2013-08-16 06:09:00,
2013-08-16 02:14:00,53.6,51.3,30.11,NNE,18,1.0,3.0,92,0.00,,,0.00,WUHU216DAVISVP2,2013-08-16 06:14:00,
2013-08-16 02:19:00,53.4,51.4,30.11,ENE,74,1.0,3.0,93,0.00,,,0.00,WUHU216DAVISVP2,2013-08-16 06:19:00,
2013-08-16 02:24:00,53.4,51.1,30.11,ENE,61,0.0,3.0,92,0.00,,,0.00,WUHU216DAVISVP2,2013-08-16 06:24:00,
2013-08-16 02:29:00,53.3,51.0,30.11,ENE,72,1.0,3.0,92,0.00,,,0.00,WUHU216DAVISVP2,2013-08-16 06:29:00,
2013-08-16 02:34:00,53.4,51.1,30.12,ENE,70,1.0,3.0,92,0.00,,,0.00,WUHU216DAVISVP2,2013-08-16 06:34:00,
2013-08-16 02:39:00,53.4,51.1,30.12,ENE,77,2.0,3.0,92,0.00,,,0.00,WUHU216DAVISVP2,2013-08-16 06:39:00,
2013-08-16 02:44:00,53.5,50.9,30.12,NE,53,1.0,3.0,91,0.00,,,0.00,WUHU216DAVISVP2,2013-08-16 06:44:00,
2013-08-16 02:49:00,53.3,50.7,30.12,ENE,69,1.0,3.0,91,0.00,,,0.00,WUHU216DAVISVP2,2013-08-16 06:49:00,
2013-08-16 02:54:00,53.4,50.5,30.12,SE,137,1.0,5.0,90,0.00,,,0.00,WUHU216DAVISVP2,2013-08-16 06:54:00,
2013-08-16 02:59:00,54.2,51.0,30.12,NE,48,0.0,5.0,89,0.00,,,0.00,WUHU216DAVISVP2,2013-08-16 06:59:00,
2013-08-16 03:04:00,54.0,51.1,30.12,SSE,163,0.0,5.0,90,0.00,,,0.00,WUHU216DAVISVP2,2013-08-16 07:04:00,
2013-08-16 03:09:00,53.6,51.0,30.12,NNE,30,2.0,5.0,91,0.00,,,0.00,WUHU216DAVISVP2,2013-08-16 07:09:00,
2013-08-16 03:14:00,53.5,50.9,30.12,SSE,155,0.0,3.0,91,0.00,,,0.00,WUHU216DAVISVP2,2013-08-16 07:14:00,
2013-08-16 03:19:00,53.4,50.5,30.12,ENE,68,0.0,2.0,90,0.00,,,0.00,WUHU216DAVISVP2,2013-08-16 07:19:00,
2013-08-16 03:24:00,53.0,50.4,30.12,ENE,68,1.0,2.0,91,0.00,,,0.00,WUHU216DAVISVP2,2013-08-16 07:24:00,
2013-08-16 03:29:00,52.8,50.8,30.12,ENE,68,0.0,2.0,93,0.00,,,0.00,WUHU216DAVISVP2,2013-08-16 07:29:00,
2013-08-16 03:34:00,53.2,50.9,30.12,ENE,68,0.0,1.0,92,0.00,,,0.00,WUHU216DAVISVP2,2013-08-16 07:34:00,
2013-08-16 03:39:00,53.3,50.4,30.11,ENE,68,0.0,1.0,90,0.00,,,0.00,WUHU216DAVISVP2,2013-08-16 07:39:00,
2013-08-16 03:44:00,53.0,50.7,30.11,ENE,68,0.0,1.0,92,0.00,,,0.00,WUHU216DAVISVP2,2013-08-16 07:44:00,
2013-08-16 03:49:00,52.7,50.4,30.11,ENE,68,0.0,1.0,92,0.00,,,0.00,WUHU216DAVISVP2,2013-08-16 07:49:00,
2013-08-16 03:54:00,52.4,50.1,30.11,ENE,68,0.0,1.0,92,0.00,,,0.00,WUHU216DAVISVP2,2013-08-16 07:54:00,
2013-08-16 03:59:00,52.2,50.2,30.12,ENE,67,0.0,1.0,93,0.00,,,0.00,WUHU216DAVISVP2,2013-08-16 07:59:00,
2013-08-16 04:04:00,52.1,50.1,30.12,SE,134,0.0,1.0,93,0.00,,,0.00,WUHU216DAVISVP2,2013-08-16 08:04:00,
2013-08-16 04:09:00,51.9,49.9,30.12,SE,142,0.0,1.0,93,0.00,,,0.00,WUHU216DAVISVP2,2013-08-16 08:09:00,
2013-08-16 04:14:00,52.2,50.5,30.12,East,81,2.0,2.0,94,0.00,,,0.00,WUHU216DAVISVP2,2013-08-16 08:14:00,
2013-08-16 04:19:00,53.3,50.7,30.12,NE,43,0.0,4.0,91,0.00,,,0.00,WUHU216DAVISVP2,2013-08-16 08:19:00,
2013-08-16 04:24:00,53.9,50.7,30.12,ENE,69,2.0,6.0,89,0.00,,,0.00,WUHU216DAVISVP2,2013-08-16 08:24:00,
2013-08-16 04:29:00,53.8,50.3,30.12,SW,221,1.0,6.0,88,0.00,,,0.00,WUHU216DAVISVP2,2013-08-16 08:29:00,
2013-08-16 04:34:00,53.3,50.4,30.12,SW,217,0.0,6.0,90,0.00,,,0.00,WUHU216DAVISVP2,2013-08-16 08:34:00,
2013-08-16 04:39:00,52.4,49.8,30.12,ESE,118,0.0,6.0,91,0.00,,,0.00,WUHU216DAVISVP2,2013-08-16 08:39:00,
2013-08-16 04:44:00,51.9,49.6,30.12,South,169,0.0,3.0,92,0.00,,,0.00,WUHU216DAVISVP2,2013-08-16 08:44:00,
2013-08-16 04:49:00,51.4,49.4,30.12,SSE,166,0.0,1.0,93,0.00,,,0.00,WUHU216DAVISVP2,2013-08-16 08:49:00,
2013-08-16 04:54:00,51.1,49.4,30.13,ESE,113,0.0,1.0,94,0.00,,,0.00,WUHU216DAVISVP2,2013-08-16 08:54:00,
2013-08-16 04:59:00,50.9,49.2,30.13,ESE,114,0.0,1.0,94,0.00,,,0.00,WUHU216DAVISVP2,2013-08-16 08:59:00,
2013-08-16 05:04:00,50.8,49.7,30.13,ESE,114,0.0,1.0,96,0.00,,,0.00,WUHU216DAVISVP2,2013-08-16 09:04:00,
2013-08-16 05:09:00,51.0,49.9,30.13,ESE,114,0.0,1.0,96,0.00,,,0.00,WUHU216DAVISVP2,2013-08-16 09:09:00,
2013-08-16 05:14:00,51.0,49.9,30.13,ESE,116,1.0,1.0,96,0.00,,,0.00,WUHU216DAVISVP2,2013-08-16 09:14:00,
2013-08-16 05:19:00,50.8,49.4,30.13,ESE,116,0.0,1.0,95,0.00,,,0.00,WUHU216DAVISVP2,2013-08-16 09:19:00,
2013-08-16 05:24:00,50.6,49.2,30.13,ESE,115,0.0,1.0,95,0.00,,,0.00,WUHU216DAVISVP2,2013-08-16 09:24:00,
2013-08-16 05:29:00,50.4,49.0,30.14,ESE,115,0.0,1.0,95,0.00,,,0.00,WUHU216DAVISVP2,2013-08-16 09:29:00,
2013-08-16 05:34:00,50.3,49.2,30.14,ESE,115,0.0,1.0,96,0.00,,,0.00,WUHU216DAVISVP2,2013-08-16 09:34:00,
2013-08-16 05:39:00,50.2,49.1,30.14,ESE,115,0.0,1.0,96,0.00,,,0.00,WUHU216DAVISVP2,2013-08-16 09:39:00,
2013-08-16 05:44:00,50.1,49.0,30.14,ESE,115,0.0,1.0,96,0.00,,,0.00,WUHU216DAVISVP2,2013-08-16 09:44:00,
2013-08-16 05:49:00,50.0,49.2,30.14,ESE,115,0.0,1.0,97,0.00,,,0.00,WUHU216DAVISVP2,2013-08-16 09:49:00,
2013-08-16 05:54:00,50.0,49.2,30.14,SE,131,0.0,1.0,97,0.00,,,0.00,WUHU216DAVISVP2,2013-08-16 09:54:00,
2013-08-16 05:59:00,49.9,49.1,30.14,SE,132,0.0,1.0,97,0.00,,,0.00,WUHU216DAVISVP2,2013-08-16 09:59:00,
2013-08-16 06:04:00,49.9,49.1,30.14,SE,131,0.0,1.0,97,0.00,,,0.00,WUHU216DAVISVP2,2013-08-16 10:04:00,
2013-08-16 06:09:00,49.9,49.1,30.14,SE,132,0.0,1.0,97,0.00,,,0.00,WUHU216DAVISVP2,2013-08-16 10:09:00,
2013-08-16 06:14:00,49.9,49.1,30.14,SE,132,0.0,1.0,97,0.00,,,0.00,WUHU216DAVISVP2,2013-08-16 10:14:00,
2013-08-16 06:19:00,50.0,49.4,30.15,SE,132,0.0,1.0,98,0.00,,,0.00,WUHU216DAVISVP2,2013-08-16 10:19:00,
2013-08-16 06:24:00,50.2,49.6,30.15,SE,140,0.0,1.0,98,0.00,,,0.00,WUHU216DAVISVP2,2013-08-16 10:24:00,
2013-08-16 06:29:00,50.3,49.5,30.15,ESE,114,0.0,1.0,97,0.00,,,0.00,WUHU216DAVISVP2,2013-08-16 10:29:00,
2013-08-16 06:34:00,50.2,49.1,30.15,ESE,113,0.0,1.0,96,0.00,,,0.00,WUHU216DAVISVP2,2013-08-16 10:34:00,
2013-08-16 06:39:00,50.1,49.0,30.15,ESE,113,0.0,1.0,96,0.00,,,0.00,WUHU216DAVISVP2,2013-08-16 10:39:00,
2013-08-16 06:44:00,50.1,49.3,30.15,ESE,113,0.0,1.0,97,0.00,,,0.00,WUHU216DAVISVP2,2013-08-16 10:44:00,
2013-08-16 06:49:00,50.2,49.4,30.15,ESE,113,0.0,0.0,97,0.00,,,0.00,WUHU216DAVISVP2,2013-08-16 10:49:00,
2013-08-16 06:54:00,50.3,49.5,30.15,ESE,113,0.0,0.0,97,0.00,,,0.00,WUHU216DAVISVP2,2013-08-16 10:54:00,
2013-08-16 06:59:00,50.3,49.5,30.15,SE,129,0.0,1.0,97,0.00,,,0.00,WUHU216DAVISVP2,2013-08-16 10:59:00,
2013-08-16 07:04:00,50.4,49.6,30.16,SE,129,0.0,1.0,97,0.00,,,0.00,WUHU216DAVISVP2,2013-08-16 11:04:00,
2013-08-16 07:09:00,50.6,49.8,30.15,ESE,117,0.0,1.0,97,0.00,,,0.00,WUHU216DAVISVP2,2013-08-16 11:09:00,
2013-08-16 07:14:00,50.8,50.3,30.16,ESE,117,0.0,1.0,98,0.00,,,0.00,WUHU216DAVISVP2,2013-08-16 11:14:00,
2013-08-16 07:19:00,51.0,50.5,30.15,ESE,117,0.0,1.0,98,0.00,,,0.00,WUHU216DAVISVP2,2013-08-16 11:19:00,
2013-08-16 07:24:00,51.4,50.5,30.15,ESE,118,0.0,1.0,97,0.00,,,0.00,WUHU216DAVISVP2,2013-08-16 11:24:00,
2013-08-16 07:29:00,51.8,50.9,30.15,ESE,110,0.0,1.0,97,0.00,,,0.00,WUHU216DAVISVP2,2013-08-16 11:29:00,
2013-08-16 07:34:00,52.3,51.4,30.15,ESE,110,0.0,1.0,97,0.00,,,0.00,WUHU216DAVISVP2,2013-08-16 11:34:00,
2013-08-16 07:39:00,52.7,51.8,30.16,ESE,110,0.0,1.0,97,0.00,,,0.00,WUHU216DAVISVP2,2013-08-16 11:39:00,
2013-08-16 07:44:00,52.9,51.8,30.16,ESE,110,0.0,1.0,96,0.00,,,0.00,WUHU216DAVISVP2,2013-08-16 11:44:00,
2013-08-16 07:49:00,53.2,52.1,30.16,ESE,111,0.0,1.0,96,0.00,,,0.00,WUHU216DAVISVP2,2013-08-16 11:49:00,
2013-08-16 07:54:00,53.6,52.5,30.16,ESE,111,0.0,1.0,96,0.00,,,0.00,WUHU216DAVISVP2,2013-08-16 11:54:00,
2013-08-16 07:59:00,53.9,52.5,30.16,ESE,111,0.0,1.0,95,0.00,,,0.00,WUHU216DAVISVP2,2013-08-16 11:59:00,
2013-08-16 08:04:00,54.3,52.9,30.16,ESE,111,0.0,1.0,95,0.00,,,0.00,WUHU216DAVISVP2,2013-08-16 12:04:00,
2013-08-16 08:09:00,54.9,53.5,30.16,ESE,111,0.0,1.0,95,0.00,,,0.00,WUHU216DAVISVP2,2013-08-16 12:09:00,
2013-08-16 08:14:00,55.9,53.9,30.17,ESE,110,0.0,1.0,93,0.00,,,0.00,WUHU216DAVISVP2,2013-08-16 12:14:00,
2013-08-16 08:19:00,57.0,54.1,30.17,ESE,111,1.0,1.0,90,0.00,,,0.00,WUHU216DAVISVP2,2013-08-16 12:19:00,
2013-08-16 08:24:00,57.7,54.2,30.17,ESE,108,1.0,1.0,88,0.00,,,0.00,WUHU216DAVISVP2,2013-08-16 12:24:00,
2013-08-16 08:29:00,58.3,54.4,30.17,ENE,65,1.0,1.0,87,0.00,,,0.00,WUHU216DAVISVP2,2013-08-16 12:29:00,
2013-08-16 08:34:00,59.0,54.8,30.16,ENE,65,0.0,1.0,86,0.00,,,0.00,WUHU216DAVISVP2,2013-08-16 12:34:00,
2013-08-16 08:39:00,59.7,54.9,30.17,SSW,200,0.0,2.0,84,0.00,,,0.00,WUHU216DAVISVP2,2013-08-16 12:39:00,
2013-08-16 08:44:00,61.0,56.5,30.17,East,84,1.0,2.0,85,0.00,,,0.00,WUHU216DAVISVP2,2013-08-16 12:44:00,
2013-08-16 08:49:00,61.7,56.2,30.17,NNE,29,1.0,2.0,82,0.00,,,0.00,WUHU216DAVISVP2,2013-08-16 12:49:00,
2013-08-16 08:54:00,61.7,56.2,30.17,NE,40,1.0,2.0,82,0.00,,,0.00,WUHU216DAVISVP2,2013-08-16 12:54:00,
2013-08-16 08:59:00,62.0,56.2,30.17,NE,46,1.0,2.0,81,0.00,,,0.00,WUHU216DAVISVP2,2013-08-16 12:59:00,
2013-08-16 09:04:00,63.0,56.5,30.17,SE,129,4.0,7.0,79,0.00,,,0.00,WUHU216DAVISVP2,2013-08-16 13:04:00,
2013-08-16 09:09:00,63.9,57.3,30.17,SSE,165,2.0,7.0,79,0.00,,,0.00,WUHU216DAVISVP2,2013-08-16 13:09:00,
2013-08-16 09:14:00,64.6,56.5,30.17,SE,134,5.0,8.0,75,0.00,,,0.00,WUHU216DAVISVP2,2013-08-16 13:14:00,
2013-08-16 09:19:00,65.0,56.1,30.16,SSE,165,2.0,8.0,73,0.00,,,0.00,WUHU216DAVISVP2,2013-08-16 13:19:00,
2013-08-16 09:24:00,65.7,57.2,30.17,SE,127,3.0,8.0,74,0.00,,,0.00,WUHU216DAVISVP2,2013-08-16 13:24:00,
2013-08-16 09:29:00,66.1,57.3,30.17,SSW,210,2.0,8.0,73,0.00,,,0.00,WUHU216DAVISVP2,2013-08-16 13:29:00,
2013-08-16 09:34:00,66.4,57.2,30.17,SW,223,2.0,8.0,72,0.00,,,0.00,WUHU216DAVISVP2,2013-08-16 13:34:00,
2013-08-16 09:39:00,66.8,56.9,30.16,SSE,154,0.0,7.0,70,0.00,,,0.00,WUHU216DAVISVP2,2013-08-16 13:39:00,
2013-08-16 09:44:00,67.1,57.9,30.16,East,91,1.0,7.0,72,0.00,,,0.00,WUHU216DAVISVP2,2013-08-16 13:44:00,
2013-08-16 09:49:00,67.1,56.8,30.16,ESE,122,6.0,7.0,69,0.00,,,0.00,WUHU216DAVISVP2,2013-08-16 13:49:00,
2013-08-16 09:54:00,67.5,57.5,30.16,SE,133,4.0,7.0,70,0.00,,,0.00,WUHU216DAVISVP2,2013-08-16 13:54:00,
2013-08-16 09:59:00,67.8,57.0,30.16,South,177,2.0,7.0,68,0.00,,,0.00,WUHU216DAVISVP2,2013-08-16 13:59:00,
2013-08-16 10:04:00,68.0,57.2,30.16,ESE,115,3.0,7.0,68,0.00,,,0.00,WUHU216DAVISVP2,2013-08-16 14:04:00,
2013-08-16 10:09:00,68.1,57.3,30.16,South,172,4.0,8.0,68,0.00,,,0.00,WUHU216DAVISVP2,2013-08-16 14:09:00,
2013-08-16 10:14:00,68.3,57.7,30.16,SW,232,4.0,8.0,69,0.00,,,0.00,WUHU216DAVISVP2,2013-08-16 14:14:00,
2013-08-16 10:19:00,68.9,58.3,30.16,SSE,150,2.0,8.0,69,0.00,,,0.00,WUHU216DAVISVP2,2013-08-16 14:19:00,
2013-08-16 10:24:00,69.1,57.9,30.16,SSW,212,3.0,8.0,67,0.00,,,0.00,WUHU216DAVISVP2,2013-08-16 14:24:00,
2013-08-16 10:29:00,69.5,57.8,30.16,SSE,154,5.0,8.0,66,0.00,,,0.00,WUHU216DAVISVP2,2013-08-16 14:29:00,
2013-08-16 10:34:00,69.8,59.7,30.16,SSW,212,2.0,7.0,70,0.00,,,0.00,WUHU216DAVISVP2,2013-08-16 14:34:00,
2013-08-16 10:39:00,70.0,58.7,30.16,West,264,4.0,7.0,67,0.00,,,0.00,WUHU216DAVISVP2,2013-08-16 14:39:00,
2013-08-16 10:44:00,69.9,60.2,30.16,SW,223,5.0,8.0,71,0.00,,,0.00,WUHU216DAVISVP2,2013-08-16 14:44:00,
2013-08-16 10:49:00,70.3,58.2,30.16,SSE,165,3.0,8.0,65,0.00,,,0.00,WUHU216DAVISVP2,2013-08-16 14:49:00,
2013-08-16 10:54:00,70.7,58.6,30.16,SSW,207,5.0,8.0,65,0.00,,,0.00,WUHU216DAVISVP2,2013-08-16 14:54:00,
2013-08-16 10:59:00,70.9,58.7,30.16,SW,219,7.0,8.0,65,0.00,,,0.00,WUHU216DAVISVP2,2013-08-16 14:59:00,
2013-08-16 11:04:00,70.9,58.1,30.16,WSW,248,1.0,7.0,64,0.00,,,0.00,WUHU216DAVISVP2,2013-08-16 15:04:00,
2013-08-16 11:09:00,71.3,58.9,30.16,SSE,164,4.0,7.0,65,0.00,,,0.00,WUHU216DAVISVP2,2013-08-16 15:09:00,
2013-08-16 11:14:00,71.4,57.9,30.15,SSW,210,6.0,7.0,62,0.00,,,0.00,WUHU216DAVISVP2,2013-08-16 15:14:00,
2013-08-16 11:19:00,71.2,57.3,30.15,SW,231,4.0,7.0,61,0.00,,,0.00,WUHU216DAVISVP2,2013-08-16 15:19:00,
2013-08-16 11:24:00,71.7,54.8,30.15,SSW,200,2.0,7.0,55,0.00,,,0.00,WUHU216DAVISVP2,2013-08-16 15:24:00,
2013-08-16 11:29:00,71.7,58.2,30.15,SW,214,3.0,7.0,62,0.00,,,0.00,WUHU216DAVISVP2,2013-08-16 15:29:00,
2013-08-16 11:34:00,71.8,55.4,30.16,South,175,2.0,6.0,56,0.00,,,0.00,WUHU216DAVISVP2,2013-08-16 15:34:00,
2013-08-16 11:39:00,72.3,56.4,30.16,SW,233,0.0,6.0,57,0.00,,,0.00,WUHU216DAVISVP2,2013-08-16 15:39:00,
2013-08-16 11:44:00,72.4,54.8,30.16,West,272,3.0,6.0,54,0.00,,,0.00,WUHU216DAVISVP2,2013-08-16 15:44:00,
2013-08-16 11:49:00,72.0,54.9,30.16,West,259,1.0,6.0,55,0.00,,,0.00,WUHU216DAVISVP2,2013-08-16 15:49:00,
2013-08-16 11:54:00,72.3,55.9,30.16,SW,236,1.0,6.0,56,0.00,,,0.00,WUHU216DAVISVP2,2013-08-16 15:54:00,
2013-08-16 11:59:00,72.8,55.3,30.16,SSW,195,1.0,6.0,54,0.00,,,0.00,WUHU216DAVISVP2,2013-08-16 15:59:00,
2013-08-16 12:04:00,73.0,56.5,30.16,SW,225,4.0,6.0,56,0.00,,,0.00,WUHU216DAVISVP2,2013-08-16 16:04:00,
2013-08-16 12:09:00,72.9,57.4,30.16,ESE,123,2.0,6.0,58,0.00,,,0.00,WUHU216DAVISVP2,2013-08-16 16:09:00,
2013-08-16 12:14:00,73.3,57.8,30.16,SSE,159,3.0,7.0,58,0.00,,,0.00,WUHU216DAVISVP2,2013-08-16 16:14:00,
2013-08-16 12:19:00,73.6,57.1,30.15,NE,42,1.0,7.0,56,0.00,,,0.00,WUHU216DAVISVP2,2013-08-16 16:19:00,
2013-08-16 12:24:00,74.1,59.5,30.16,WSW,250,3.0,7.0,60,0.00,,,0.00,WUHU216DAVISVP2,2013-08-16 16:24:00,
2013-08-16 12:29:00,74.0,57.8,30.15,West,259,3.0,9.0,57,0.00,,,0.00,WUHU216DAVISVP2,2013-08-16 16:29:00,
2013-08-16 12:34:00,74.2,58.7,30.15,SSW,209,6.0,9.0,58,0.00,,,0.00,WUHU216DAVISVP2,2013-08-16 16:34:00,
2013-08-16 12:39:00,74.4,60.3,30.15,WSW,254,5.0,9.0,61,0.00,,,0.00,WUHU216DAVISVP2,2013-08-16 16:39:00,
2013-08-16 12:44:00,74.3,57.2,30.15,SW,224,1.0,9.0,55,0.00,,,0.00,WUHU216DAVISVP2,2013-08-16 16:44:00,
2013-08-16 12:49:00,74.6,57.0,30.15,ESE,115,0.0,8.0,54,0.00,,,0.00,WUHU216DAVISVP2,2013-08-16 16:49:00,
2013-08-16 12:54:00,74.8,60.2,30.15,SW,229,3.0,8.0,60,0.00,,,0.00,WUHU216DAVISVP2,2013-08-16 16:54:00,
2013-08-16 12:59:00,74.6,56.9,30.15,WSW,241,3.0,9.0,54,0.00,,,0.00,WUHU216DAVISVP2,2013-08-16 16:59:00,
2013-08-16 13:04:00,74.8,56.7,30.15,SW,221,2.0,9.0,53,0.00,,,0.00,WUHU216DAVISVP2,2013-08-16 17:04:00,
2013-08-16 13:09:00,75.1,59.5,30.15,WSW,258,6.0,9.0,58,0.00,,,0.00,WUHU216DAVISVP2,2013-08-16 17:09:00,
2013-08-16 13:14:00,75.0,57.4,30.15,WSW,239,6.0,8.0,54,0.00,,,0.00,WUHU216DAVISVP2,2013-08-16 17:14:00,
2013-08-16 13:19:00,74.8,56.1,30.15,SE,144,5.0,7.0,52,0.00,,,0.00,WUHU216DAVISVP2,2013-08-16 17:19:00,
2013-08-16 13:24:00,74.8,55.6,30.15,WSW,250,1.0,8.0,51,0.00,,,0.00,WUHU216DAVISVP2,2013-08-16 17:24:00,
2013-08-16 13:29:00,75.2,54.7,30.15,SW,235,0.0,8.0,49,0.00,,,0.00,WUHU216DAVISVP2,2013-08-16 17:29:00,
2013-08-16 13:34:00,75.6,57.4,30.15,West,268,4.0,8.0,53,0.00,,,0.00,WUHU216DAVISVP2,2013-08-16 17:34:00,
2013-08-16 13:39:00,75.4,58.8,30.15,South,189,2.0,8.0,56,0.00,,,0.00,WUHU216DAVISVP2,2013-08-16 17:39:00,
2013-08-16 13:44:00,76.1,57.9,30.15,South,188,1.0,6.0,53,0.00,,,0.00,WUHU216DAVISVP2,2013-08-16 17:44:00,
2013-08-16 13:49:00,76.4,56.5,30.15,WSW,254,5.0,7.0,50,0.00,,,0.00,WUHU216DAVISVP2,2013-08-16 17:49:00,
2013-08-16 13:54:00,75.9,57.0,30.15,SE,137,3.0,7.0,52,0.00,,,0.00,WUHU216DAVISVP2,2013-08-16 17:54:00,
2013-08-16 13:59:00,75.3,56.0,30.15,WSW,246,1.0,9.0,51,0.00,,,0.00,WUHU216DAVISVP2,2013-08-16 17:59:00,
2013-08-16 14:04:00,74.9,56.7,30.15,West,264,3.0,9.0,53,0.00,,,0.00,WUHU216DAVISVP2,2013-08-16 18:04:00,
2013-08-16 14:09:00,74.2,55.6,30.15,SW,214,1.0,9.0,52,0.00,,,0.00,WUHU216DAVISVP2,2013-08-16 18:09:00,
2013-08-16 14:14:00,74.5,56.9,30.15,SSE,167,0.0,9.0,54,0.00,,,0.00,WUHU216DAVISVP2,2013-08-16 18:14:00,
2013-08-16 14:19:00,75.3,56.5,30.15,WSW,245,1.0,5.0,52,0.00,,,0.00,WUHU216DAVISVP2,2013-08-16 18:19:00,
2013-08-16 14:24:00,75.4,56.7,30.14,SW,234,0.0,5.0,52,0.00,,,0.00,WUHU216DAVISVP2,2013-08-16 18:24:00,
2013-08-16 14:29:00,76.2,58.0,30.14,South,175,1.0,4.0,53,0.00,,,0.00,WUHU216DAVISVP2,2013-08-16 18:29:00,
2013-08-16 14:34:00,76.4,55.9,30.14,WSW,245,4.0,4.0,49,0.00,,,0.00,WUHU216DAVISVP2,2013-08-16 18:34:00,
2013-08-16 14:39:00,75.8,54.8,30.14,West,279,0.0,5.0,48,0.00,,,0.00,WUHU216DAVISVP2,2013-08-16 18:39:00,
2013-08-16 14:44:00,75.9,55.9,30.14,SSW,206,2.0,5.0,50,0.00,,,0.00,WUHU216DAVISVP2,2013-08-16 18:44:00,
2013-08-16 14:49:00,76.3,58.6,30.14,West,260,1.0,5.0,54,0.00,,,0.00,WUHU216DAVISVP2,2013-08-16 18:49:00,
2013-08-16 14:54:00,76.5,57.7,30.14,WNW,283,3.0,5.0,52,0.00,,,0.00,WUHU216DAVISVP2,2013-08-16 18:54:00,
2013-08-16 14:59:00,76.5,56.0,30.14,NNE,31,1.0,5.0,49,0.00,,,0.00,WUHU216DAVISVP2,2013-08-16 18:59:00,
2013-08-16 15:04:00,76.4,58.5,30.14,WNW,284,1.0,5.0,54,0.00,,,0.00,WUHU216DAVISVP2,2013-08-16 19:04:00,
2013-08-16 15:09:00,76.4,56.5,30.14,WNW,290,0.0,5.0,50,0.00,,,0.00,WUHU216DAVISVP2,2013-08-16 19:09:00,
2013-08-16 15:14:00,76.2,55.1,30.14,NW,305,0.0,5.0,48,0.00,,,0.00,WUHU216DAVISVP2,2013-08-16 19:14:00,
2013-08-16 15:19:00,76.2,56.9,30.14,SW,215,0.0,5.0,51,0.00,,,0.00,WUHU216DAVISVP2,2013-08-16 19:19:00,
2013-08-16 15:24:00,75.9,58.2,30.14,SSW,209,2.0,5.0,54,0.00,,,0.00,WUHU216DAVISVP2,2013-08-16 19:24:00,
2013-08-16 15:29:00,75.4,57.6,30.14,WSW,258,0.0,5.0,54,0.00,,,0.00,WUHU216DAVISVP2,2013-08-16 19:29:00,
2013-08-16 15:34:00,75.9,57.1,30.14,WSW,252,0.0,5.0,52,0.00,,,0.00,WUHU216DAVISVP2,2013-08-16 19:34:00,
2013-08-16 15:39:00,75.9,57.1,30.14,SSW,200,0.0,4.0,52,0.00,,,0.00,WUHU216DAVISVP2,2013-08-16 19:39:00,
2013-08-16 15:44:00,76.3,57.5,30.14,SSW,199,0.0,3.0,52,0.00,,,0.00,WUHU216DAVISVP2,2013-08-16 19:44:00,
2013-08-16 15:49:00,76.0,58.3,30.14,ESE,120,1.0,3.0,54,0.00,,,0.00,WUHU216DAVISVP2,2013-08-16 19:49:00,
2013-08-16 15:54:00,76.6,56.7,30.13,SE,140,0.0,3.0,50,0.00,,,0.00,WUHU216DAVISVP2,2013-08-16 19:54:00,
2013-08-16 15:59:00,77.2,56.6,30.13,WNW,283,0.0,3.0,49,0.00,,,0.00,WUHU216DAVISVP2,2013-08-16 19:59:00,
2013-08-16 16:04:00,77.0,55.9,30.14,ENE,61,2.0,5.0,48,0.00,,,0.00,WUHU216DAVISVP2,2013-08-16 20:04:00,
2013-08-16 16:09:00,77.1,58.8,30.14,SSE,163,3.0,5.0,53,0.00,,,0.00,WUHU216DAVISVP2,2013-08-16 20:09:00,
2013-08-16 16:14:00,77.4,58.9,30.14,SSW,212,1.0,6.0,53,0.00,,,0.00,WUHU216DAVISVP2,2013-08-16 20:14:00,
2013-08-16 16:19:00,76.4,56.9,30.14,WSW,253,1.0,6.0,51,0.00,,,0.00,WUHU216DAVISVP2,2013-08-16 20:19:00,
2013-08-16 16:24:00,76.0,59.7,30.14,South,179,1.0,6.0,57,0.00,,,0.00,WUHU216DAVISVP2,2013-08-16 20:24:00,
2013-08-16 16:29:00,76.8,58.5,30.14,NNW,341,2.0,6.0,53,0.00,,,0.00,WUHU216DAVISVP2,2013-08-16 20:29:00,
2013-08-16 16:34:00,76.7,60.0,30.14,SW,230,2.0,5.0,56,0.00,,,0.00,WUHU216DAVISVP2,2013-08-16 20:34:00,
2013-08-16 16:39:00,77.5,59.7,30.14,SSW,195,1.0,5.0,54,0.00,,,0.00,WUHU216DAVISVP2,2013-08-16 20:39:00,
2013-08-16 16:44:00,77.8,58.8,30.14,SE,132,4.0,6.0,52,0.00,,,0.00,WUHU216DAVISVP2,2013-08-16 20:44:00,
2013-08-16 16:49:00,77.5,59.2,30.14,SSE,168,2.0,6.0,53,0.00,,,0.00,WUHU216DAVISVP2,2013-08-16 20:49:00,
2013-08-16 16:54:00,77.5,58.6,30.14,SSE,156,3.0,6.0,52,0.00,,,0.00,WUHU216DAVISVP2,2013-08-16 20:54:00,
2013-08-16 16:59:00,75.9,58.7,30.14,South,188,2.0,6.0,55,0.00,,,0.00,WUHU216DAVISVP2,2013-08-16 20:59:00,
2013-08-16 17:04:00,75.0,59.4,30.14,SW,233,1.0,6.0,58,0.00,,,0.00,WUHU216DAVISVP2,2013-08-16 21:04:00,
2013-08-16 17:09:00,74.3,62.2,30.14,NNE,32,1.0,6.0,66,0.00,,,0.00,WUHU216DAVISVP2,2013-08-16 21:09:00,
2013-08-16 17:14:00,73.4,62.2,30.14,SSE,154,0.0,6.0,68,0.00,,,0.00,WUHU216DAVISVP2,2013-08-16 21:14:00,
2013-08-16 17:19:00,73.5,62.5,30.14,ESE,109,0.0,2.0,68,0.00,,,0.00,WUHU216DAVISVP2,2013-08-16 21:19:00,
2013-08-16 17:24:00,74.5,60.8,30.14,NE,46,0.0,2.0,62,0.00,,,0.00,WUHU216DAVISVP2,2013-08-16 21:24:00,
2013-08-16 17:29:00,75.7,58.6,30.14,SE,136,2.0,3.0,55,0.00,,,0.00,WUHU216DAVISVP2,2013-08-16 21:29:00,
2013-08-16 17:34:00,76.1,58.9,30.14,SW,219,1.0,3.0,55,0.00,,,0.00,WUHU216DAVISVP2,2013-08-16 21:34:00,
2013-08-16 17:39:00,76.4,59.0,30.14,South,175,1.0,3.0,55,0.00,,,0.00,WUHU216DAVISVP2,2013-08-16 21:39:00,
2013-08-16 17:44:00,76.6,60.9,30.14,SSW,206,0.0,3.0,58,0.00,,,0.00,WUHU216DAVISVP2,2013-08-16 21:44:00,
2013-08-16 17:49:00,75.7,63.8,30.14,SSE,150,0.0,3.0,66,0.00,,,0.00,WUHU216DAVISVP2,2013-08-16 21:49:00,
2013-08-16 17:54:00,73.8,61.1,30.14,ENE,64,1.0,2.0,64,0.00,,,0.00,WUHU216DAVISVP2,2013-08-16 21:54:00,
2013-08-16 17:59:00,72.5,61.9,30.14,North,352,0.0,2.0,69,0.00,,,0.00,WUHU216DAVISVP2,2013-08-16 21:59:00,
2013-08-16 18:04:00,71.4,61.3,30.14,North,11,1.0,2.0,70,0.00,,,0.00,WUHU216DAVISVP2,2013-08-16 22:04:00,
2013-08-16 18:09:00,70.7,61.8,30.14,North,11,1.0,2.0,73,0.00,,,0.00,WUHU216DAVISVP2,2013-08-16 22:09:00,
2013-08-16 18:14:00,70.2,62.4,30.14,North,11,1.0,2.0,76,0.00,,,0.00,WUHU216DAVISVP2,2013-08-16 22:14:00,
2013-08-16 18:19:00,70.1,62.3,30.14,North,4,1.0,3.0,76,0.00,,,0.00,WUHU216DAVISVP2,2013-08-16 22:19:00,
2013-08-16 18:24:00,70.9,63.4,30.14,North,352,1.0,3.0,77,0.00,,,0.00,WUHU216DAVISVP2,2013-08-16 22:24:00,
2013-08-16 18:29:00,71.3,62.7,30.15,North,359,1.0,3.0,74,0.00,,,0.00,WUHU216DAVISVP2,2013-08-16 22:29:00,
2013-08-16 18:34:00,71.8,64.0,30.15,NW,325,0.0,4.0,76,0.00,,,0.00,WUHU216DAVISVP2,2013-08-16 22:34:00,
2013-08-16 18:39:00,72.6,63.2,30.15,NNW,340,1.0,4.0,72,0.00,,,0.00,WUHU216DAVISVP2,2013-08-16 22:39:00,
2013-08-16 18:44:00,72.9,63.1,30.15,NNW,328,0.0,4.0,71,0.00,,,0.00,WUHU216DAVISVP2,2013-08-16 22:44:00,
2013-08-16 18:49:00,72.9,63.5,30.15,NNW,328,0.0,2.0,72,0.00,,,0.00,WUHU216DAVISVP2,2013-08-16 22:49:00,
2013-08-16 18:54:00,72.8,62.0,30.15,North,351,0.0,1.0,69,0.00,,,0.00,WUHU216DAVISVP2,2013-08-16 22:54:00,
2013-08-16 18:59:00,73.2,63.2,30.15,NNE,13,0.0,1.0,71,0.00,,,0.00,WUHU216DAVISVP2,2013-08-16 22:59:00,
2013-08-16 19:04:00,73.2,63.4,30.16,NNE,13,1.0,1.0,71,0.00,,,0.00,WUHU216DAVISVP2,2013-08-16 23:04:00,
2013-08-16 19:09:00,72.9,62.7,30.16,NE,53,0.0,1.0,70,0.00,,,0.00,WUHU216DAVISVP2,2013-08-16 23:09:00,
2013-08-16 19:14:00,72.2,62.5,30.16,ENE,72,1.0,2.0,71,0.00,,,0.00,WUHU216DAVISVP2,2013-08-16 23:14:00,
2013-08-16 19:19:00,70.7,62.5,30.16,ENE,72,1.0,2.0,75,0.00,,,0.00,WUHU216DAVISVP2,2013-08-16 23:19:00,
2013-08-16 19:24:00,69.7,63.0,30.16,ENE,72,0.0,2.0,79,0.00,,,0.00,WUHU216DAVISVP2,2013-08-16 23:24:00,
2013-08-16 19:29:00,68.9,63.2,30.16,ENE,71,1.0,2.0,82,0.00,,,0.00,WUHU216DAVISVP2,2013-08-16 23:29:00,
2013-08-16 19:34:00,68.2,62.5,30.16,NE,56,0.0,2.0,82,0.00,,,0.00,WUHU216DAVISVP2,2013-08-16 23:34:00,
2013-08-16 19:39:00,67.7,62.7,30.17,NE,54,1.0,2.0,84,0.00,,,0.00,WUHU216DAVISVP2,2013-08-16 23:39:00,
2013-08-16 19:44:00,67.1,62.1,30.17,East,81,1.0,2.0,84,0.00,,,0.00,WUHU216DAVISVP2,2013-08-16 23:44:00,
2013-08-16 19:49:00,66.8,62.2,30.17,East,88,1.0,2.0,85,0.00,,,0.00,WUHU216DAVISVP2,2013-08-16 23:49:00,
2013-08-16 19:54:00,66.4,61.8,30.17,East,89,0.0,2.0,85,0.00,,,0.00,WUHU216DAVISVP2,2013-08-16 23:54:00,
2013-08-16 19:59:00,65.9,61.3,30.17,East,84,0.0,2.0,85,0.00,,,0.00,WUHU216DAVISVP2,2013-08-16 23:59:00,
2013-08-16 20:04:00,65.5,60.9,30.17,East,84,0.0,2.0,85,0.00,,,0.00,WUHU216DAVISVP2,2013-08-17 00:04:00,
2013-08-16 20:09:00,65.0,60.7,30.17,NNE,13,0.0,1.0,86,0.00,,,0.00,WUHU216DAVISVP2,2013-08-17 00:09:00,
2013-08-16 20:14:00,64.5,60.2,30.17,NNE,13,0.0,1.0,86,0.00,,,0.00,WUHU216DAVISVP2,2013-08-17 00:14:00,
2013-08-16 20:19:00,64.2,60.2,30.17,NNE,24,1.0,2.0,87,0.00,,,0.00,WUHU216DAVISVP2,2013-08-17 00:19:00,
2013-08-16 20:24:00,64.1,60.1,30.17,NNE,26,0.0,2.0,87,0.00,,,0.00,WUHU216DAVISVP2,2013-08-17 00:24:00,
2013-08-16 20:29:00,64.0,59.7,30.18,NNW,336,2.0,2.0,86,0.00,,,0.00,WUHU216DAVISVP2,2013-08-17 00:29:00,
2013-08-16 20:34:00,63.9,60.3,30.19,NNE,25,2.0,5.0,88,0.00,,,0.00,WUHU216DAVISVP2,2013-08-17 00:34:00,
2013-08-16 20:39:00,64.4,60.4,30.19,NE,34,1.0,5.0,87,0.00,,,0.00,WUHU216DAVISVP2,2013-08-17 00:39:00,
2013-08-16 20:44:00,65.3,60.7,30.20,NE,34,1.0,5.0,85,0.00,,,0.00,WUHU216DAVISVP2,2013-08-17 00:44:00,
2013-08-16 20:49:00,65.3,60.7,30.20,NE,37,3.0,10.0,85,0.00,,,0.00,WUHU216DAVISVP2,2013-08-17 00:49:00,
2013-08-16 20:54:00,64.9,60.9,30.20,SW,214,2.0,10.0,87,0.00,,,0.00,WUHU216DAVISVP2,2013-08-17 00:54:00,
2013-08-16 20:59:00,64.4,61.1,30.20,WNW,284,1.0,10.0,89,0.00,,,0.00,WUHU216DAVISVP2,2013-08-17 00:59:00,
2013-08-16 21:04:00,64.0,61.0,30.20,NNW,333,1.0,10.0,90,0.00,,,0.00,WUHU216DAVISVP2,2013-08-17 01:04:00,
2013-08-16 21:09:00,63.9,60.9,30.21,NW,311,2.0,4.0,90,0.00,,,0.00,WUHU216DAVISVP2,2013-08-17 01:09:00,
2013-08-16 21:14:00,63.9,60.9,30.21,WNW,294,0.0,5.0,90,0.00,,,0.00,WUHU216DAVISVP2,2013-08-17 01:14:00,
2013-08-16 21:19:00,63.8,60.5,30.21,SE,124,0.0,5.0,89,0.00,,,0.00,WUHU216DAVISVP2,2013-08-17 01:19:00,
2013-08-16 21:24:00,63.7,60.4,30.21,SW,225,2.0,5.0,89,0.00,,,0.00,WUHU216DAVISVP2,2013-08-17 01:24:00,
2013-08-16 21:29:00,63.7,60.4,30.21,WSW,246,2.0,5.0,89,0.00,,,0.00,WUHU216DAVISVP2,2013-08-17 01:29:00,
2013-08-16 21:34:00,63.8,60.8,30.21,SSW,202,2.0,4.0,90,0.00,,,0.00,WUHU216DAVISVP2,2013-08-17 01:34:00,
2013-08-16 21:39:00,63.7,60.4,30.21,ESE,115,0.0,4.0,89,0.00,,,0.00,WUHU216DAVISVP2,2013-08-17 01:39:00,
2013-08-16 21:44:00,63.6,60.3,30.22,WNW,283,0.0,4.0,89,0.00,,,0.00,WUHU216DAVISVP2,2013-08-17 01:44:00,
2013-08-16 21:49:00,63.5,60.2,30.22,NW,319,0.0,4.0,89,0.00,,,0.00,WUHU216DAVISVP2,2013-08-17 01:49:00,
2013-08-16 21:54:00,63.5,60.2,30.22,NNW,330,0.0,4.0,89,0.00,,,0.00,WUHU216DAVISVP2,2013-08-17 01:54:00,
2013-08-16 21:59:00,63.5,60.2,30.22,NNE,23,0.0,3.0,89,0.00,,,0.00,WUHU216DAVISVP2,2013-08-17 01:59:00,
2013-08-16 22:04:00,63.5,60.2,30.22,North,5,2.0,3.0,89,0.00,,,0.00,WUHU216DAVISVP2,2013-08-17 02:04:00,
2013-08-16 22:09:00,63.5,60.2,30.22,East,96,0.0,5.0,89,0.00,,,0.00,WUHU216DAVISVP2,2013-08-17 02:09:00,
2013-08-16 22:14:00,63.2,60.2,30.22,NW,311,2.0,5.0,90,0.00,,,0.00,WUHU216DAVISVP2,2013-08-17 02:14:00,
2013-08-16 22:19:00,63.0,60.0,30.22,SSW,194,1.0,5.0,90,0.00,,,0.00,WUHU216DAVISVP2,2013-08-17 02:19:00,
2013-08-16 22:24:00,62.9,59.9,30.22,West,281,2.0,5.0,90,0.00,,,0.00,WUHU216DAVISVP2,2013-08-17 02:24:00,
2013-08-16 22:29:00,62.9,60.2,30.22,North,6,1.0,3.0,91,0.00,,,0.00,WUHU216DAVISVP2,2013-08-17 02:29:00,
2013-08-16 22:34:00,62.7,59.7,30.22,NE,46,0.0,3.0,90,0.00,,,0.00,WUHU216DAVISVP2,2013-08-17 02:34:00,
2013-08-16 22:39:00,62.5,60.1,30.22,NE,46,1.0,2.0,92,0.00,,,0.00,WUHU216DAVISVP2,2013-08-17 02:39:00,
2013-08-16 22:44:00,62.1,60.1,30.22,ENE,59,0.0,2.0,93,0.00,,,0.00,WUHU216DAVISVP2,2013-08-17 02:44:00,
2013-08-16 22:49:00,61.8,59.8,30.23,ENE,58,1.0,2.0,93,0.00,,,0.00,WUHU216DAVISVP2,2013-08-17 02:49:00,
2013-08-16 22:54:00,61.6,59.5,30.23,ENE,58,0.0,1.0,93,0.00,,,0.00,WUHU216DAVISVP2,2013-08-17 02:54:00,
2013-08-16 22:59:00,61.4,59.6,30.23,ENE,58,0.0,1.0,94,0.00,,,0.00,WUHU216DAVISVP2,2013-08-17 02:59:00,
2013-08-16 23:04:00,61.3,59.5,30.23,ENE,58,0.0,1.0,94,0.00,,,0.00,WUHU216DAVISVP2,2013-08-17 03:04:00,
2013-08-16 23:09:00,61.2,59.7,30.23,NNE,17,1.0,1.0,95,0.00,,,0.00,WUHU216DAVISVP2,2013-08-17 03:09:00,
2013-08-16 23:14:00,61.0,59.2,30.23,North,1,1.0,2.0,94,0.00,,,0.00,WUHU216DAVISVP2,2013-08-17 03:14:00,
2013-08-16 23:19:00,60.8,59.0,30.23,North,11,0.0,2.0,94,0.00,,,0.00,WUHU216DAVISVP2,2013-08-17 03:19:00,
2013-08-16 23:24:00,60.5,58.7,30.23,North,11,0.0,2.0,94,0.00,,,0.00,WUHU216DAVISVP2,2013-08-17 03:24:00,
2013-08-16 23:29:00,60.3,58.6,30.23,North,11,0.0,1.0,94,0.00,,,0.00,WUHU216DAVISVP2,2013-08-17 03:29:00,
2013-08-16 23:34:00,60.1,58.7,30.23,North,11,0.0,1.0,95,0.00,,,0.00,WUHU216DAVISVP2,2013-08-17 03:34:00,
2013-08-16 23:39:00,60.0,58.5,30.23,North,11,0.0,1.0,95,0.00,,,0.00,WUHU216DAVISVP2,2013-08-17 03:39:00,
2013-08-16 23:44:00,59.9,58.4,30.23,North,11,0.0,1.0,95,0.00,,,0.00,WUHU216DAVISVP2,2013-08-17 03:44:00,
2013-08-16 23:49:00,59.6,58.1,30.23,North,9,0.0,1.0,95,0.00,,,0.00,WUHU216DAVISVP2,2013-08-17 03:49:00,
2013-08-16 23:54:00,59.3,57.8,30.23,North,9,0.0,1.0,95,0.00,,,0.00,WUHU216DAVISVP2,2013-08-17 03:54:00,
2013-08-16 23:59:00,59.3,58.1,30.23,North,10,0.0,1.0,96,0.00,,,0.00,WUHU216DAVISVP2,2013-08-17 03:59:00,